Lid_Strength_Index
1 3 3 3 8 8 10 10 8 8 7 4 5 6 6 6 8 10 1 0 -0 -0 -1 -1 -1 -1 -1 -1 -1 -1 -1 -1 -1 -1 -1 -1 -1 -1 -1 -1 -1 -1 -1 -1 -1 -1 -1 -1 -1
4 4 4 5 9 9 10 9 9 7 6 5 5 5 6 7 3 3 2 0 -0 -0 -1 -1 -1 -1 -1 -1 -1 -1 -1 -1 -1 -1 -1 -1 -1 -1 -1 -1 -1 -1 -2 -1 -1 -1 -1 -1 -1
4 5 6 8 8 9 10 9 8 7 6 8 5 4 5 6 3 3 1 0 -0 -1 -1 -1 -1 -1 -1 -1 -1 -1 -1 -1 -1 -1 -1 -1 -1 -1 -1 -1 -1 -1 -1 -1 -1 -1 -1 -1 -1
5 4 4 8 11 10 9 9 7 7 4 4 4 6 4 2 3 1 0 -0 -0 -0 -1 -1 -1 -1 -1 -1 -1 -1 -1 -1 -1 -1 -1 -1 -1 -1 -1 -1 -1 -1 -2 -2 -1 -1 -1 -1 -1
3 5 7 9 10 8 8 8 7 7 5 5 4 6 4 2 1 0 0 -0 0 -0 -1 -1 -1 -1 -1 -1 -1 -1 -1 -1 -1 -1 -1 -1 -1 -1 -1 -1 -1 -1 -2 -2 -1 -1 -1 -1 -1
6 5 9 9 10 9 7 6 5 5 4 4 5 5 5 3 1 0 -0 0 -0 -0 -1 -1 -1 -1 -1 -1 -1 -1 -1 -1 -1 -1 -1 -1 -1 -1 -1 -1 -1 -1 -2 -2 -1 -1 -2 -2 -2
7 7 8 9 9 9 8 6 6 6 5 6 4 5 4 4 0 0 -0 -0 -0 -1 -1 -1 -1 -1 -1 -1 -1 -1 -1 -1 -1 -1 -1 -1 -1 -1 -1 -1 -1 -1 -1 -1 -1 -2 -2 -2 -1
5 5 9 8 9 9 6 6 5 6 7 5 5 6 6 4 1 0 0 -0 -0 -0 -1 -1 -1 -1 -1 -1 -1 -1 -1 -1 -1 -1 -1 -1 -1 -1 -1 -1 -1 -1 -1 -1 -1 -1 -1 -1 -2
5 7 9 9 9 8 6 6 5 4 5 5 5 5 4 3 2 2 1 1 -0 -0 -1 -1 -1 -1 -1 -1 -1 -1 -1 -1 -1 -1 -1 -1 -2 -2 -2 -2 -1 -1 -1 -1 -1 -1 -1 -1 -1
4 5 8 6 6 7 6 6 6 6 6 5 5 3 3 2 2 2 2 2 1 1 0 -1 -1 -1 -1 -1 -1 -1 -1 -1 -2 -2 -2 -2 -2 -2 -2 -2 -1 -1 -1 -1 -1 -1 -1 -1 -2
5 7 6 6 6 6 6 6 5 6 6 6 6 5 4 3 2 3 3 2 2 1 0 -0 -1 -1 -1 -1 -1 -1 -1 -1 -1 -2 -2 -2 -2 -2 -1 -1 -1 -2 -1 -1 -1 -1 -1 -2 -1
6 6 5 5 5 6 6 5 6 5 5 4 4 4 4 3 3 2 2 2 2 1 1 0 -1 -1 -1 -1 -1 -1 -1 -1 -1 -1 -2 -1 -1 -1 -1 -1 -1 -1 -1 -1 -1 -1 -2 -1 -2
6 6 6 5 5 5 5 6 6 6 4 4 3 3 3 3 3 2 2 1 0 0 -0 -1 -1 -1 -1 -1 -1 -1 -1 -1 -1 -1 -1 -1 -0 -0 -1 -1 -1 -1 -1 -1 -1 -1 -1 -1 -1
6 6 6 5 5 5 6 6 6 5 4 4 4 3 3 2 2 1 1 1 0 0 -0 -1 -1 -1 -1 -1 -1 -0 -1 -1 -1 -1 -1 -1 -1 -1 -0 -1 -1 -1 -1 -1 -1 -1 -1 -1 -1
5 7 6 6 6 6 6 7 6 5 4 4 4 3 3 2 2 1 1 1 0 0 -0 -0 -1 -1 -2 -1 -1 -1 -1 -1 -1 -1 -1 -1 -1 -1 -1 -1 -1 -1 -1 -1 -1 -1 -1 -1 -1
7 7 8 6 6 6 6 8 5 4 4 5 4 3 3 2 2 1 1 1 0 0 0 -1 -1 -1 -1 -1 -1 -1 -1 -1 -1 -1 -1 -1 -1 -1 -1 -0 -0 -1 -1 -1 -1 -0 -0 -0 -0
7 9 9 8 6 6 6 8 5 4 4 4 4 3 3 3 2 1 1 1 0 -0 -0 -0 -1 -0 -1 -1 -1 -1 -1 -1 -1 -1 -1 -1 -1 -1 -0 -0 -0 -1 -1 -0 -0 -0 -0 0 0
10 9 8 8 6 6 7 7 5 4 4 4 4 4 3 3 3 2 1 1 0 -0 -1 -1 -1 -1 -1 -1 -1 -1 -0 -1 -1 -1 -1 -1 -1 -1 -0 -0 -0 -0 -0 -0 -0 -0 -0 0 0
7 8 8 7 6 7 7 7 5 4 4 5 4 4 4 3 2 2 1 1 0 -0 -0 -0 -0 -1 -0 0 1 0 1 0 0 -0 -1 -1 -1 -1 -0 0 -0 -1 1 0 -0 0 0 1 -0
7 8 8 7 6 6 7 7 6 5 5 4 4 4 4 3 3 2 1 1 1 0 -0 -0 -0 -1 -1 -0 -0 0 0 -0 -0 -0 -1 -1 -1 -1 -0 0 -0 -0 0 1 1 0 1 1 0
7 8 8 8 7 6 7 8 7 6 5 4 4 3 3 3 3 3 2 1 1 1 0 0 -0 -1 -1 -1 -0 -0 -0 0 1 0 0 -0 -1 -0 -0 -0 -0 -0 0 1 1 1 1 2 1
9 7 8 8 9 11 7 12 8 7 6 5 4 4 4 3 3 2 2 1 1 1 -0 -0 -1 -1 -1 -1 -1 -0 1 2 1 0 -0 -0 -1 -0 -1 -1 -0 -0 -0 0 0 0 1 2 2
8 7 7 8 9 9 9 11 9 7 7 6 5 4 4 3 3 3 2 1 1 0 0 -0 -0 -1 -1 -1 -1 0 0 1 0 0 0 -0 -1 -1 -1 -1 -0 0 0 -0 -0 0 1 1 2
7 7 7 7 9 12 10 10 10 8 7 6 5 4 4 3 3 2 2 1 1 0 0 -0 -0 -0 -0 -0 -0 -0 0 1 1 1 1 1 0 -0 -0 -0 -0 0 -0 -0 0 0 0 0 1
7 9 14 13 13 14 9 11 9 6 6 5 5 4 4 3 3 2 2 2 1 1 1 0 0 0 0 0 -0 -0 -0 0 1 1 1 1 1 1 0 -0 -0 0 0 -0 -1 -0 0 0 1
8 9 13 18 15 13 9 12 9 6 5 4 4 4 4 3 2 2 2 2 2 1 1 1 0 1 1 1 0 -0 -0 0 0 0 0 1 1 0 -1 -0 -0 -0 -0 -0 -0 0 0 0 1
9 11 8 13 11 14 11 9 7 6 5 5 4 4 4 3 3 3 2 2 2 1 1 1 0 0 1 1 1 -0 -0 -0 0 -0 -0 0 -0 0 -0 -0 -0 -0 -0 -0 -0 0 0 0 0
7 6 12 12 19 17 12 11 11 8 7 6 5 5 4 3 3 3 2 2 1 1 0 0 0 0 1 1 1 1 -0 -0 -0 -0 0 0 -0 -0 -0 -0 -0 -0 0 -0 -0 1 0 1 1
8 10 9 10 12 17 16 12 6 7 6 6 5 5 5 4 3 3 2 2 1 1 1 1 1 1 1 1 1 0 0 -0 -0 0 0 0 -0 0 0 0 0 0 0 -0 0 0 0 1 1
7 8 8 15 14 12 14 15 6 5 6 6 5 5 5 3 3 3 2 2 1 2 2 1 1 1 1 1 1 1 0 -0 0 0 0 -0 0 0 0 0 0 0 0 0 1 1 1 1 2